Погода в Бабушкине

Погода в Бабушкине : погода сейчас, прогноз погоды и архив. Всё, что Вы хотите узнать о погоде в Бабушкине!

Поиск расширенной информации на нашем сайте:

Другие новости

Новости СМИ2

Главная страница сайта

Новости сайта

03.07.2017

Напоминаем, что на нашем специализированном сайте Метеоцентр.Азия вы можете получить высокодетализированные автоматические прогнозы погоды по пунктам России, СНГ и мира в авиационном формате (включающие направление и скорость ветра, видимость, явления погоды, количество и форму облачности, нижнюю и верхнюю границу облачности).


Погода в Бабушкине - сегодня

Время (UTC), дата Ветер
(°,м/с) 
Видим.   Явления Облачность Т
(°С)
Тd
(°С)
f(%) Тe
(°С)
Pmin
(гПа)
dP
(гПа)
Po
(мм)
O2
(г/м3)
Тmin Tmax R s Состояние
почвы
15 16.09.17 310 (СЗ) 20000 м    9/0 верхняя 
[Ci sp]
+12.5 +6.3 66 +14  1008.4  -1.7  716  275           
18 16.09.17 260 (З) 20000 м    4/0 верхняя 
[Ci sp]
+7.8 +5.7 87 +9  1008.4  -0.8  715  279           
21 16.09.17 тихо ()   20000 м    9/0 верхняя 
[Ci sp]
+9.1 +6.7 85 +9  1007.5  -0.6  715  277           
03 17.09.17 310 (СЗ) 20000 м    9/3 600 м средняя, верхняя 
[Sc|Ac trans|Ci sp]
+17.5 +6.7 49 +19  1004.4  -0.6  714  269           
06 17.09.17 300 (СЗ) 20000 м    9/4 600 м кучево-дожд., средняя, верхняя 
[Cb cap|Ac trans|Ci sp]
+14.7 +7.2 61 +15  1004.2  -0.7  713  271           
09 17.09.17 300 (СЗ) 20000 м    9/4 600 м кучево-дожд., средняя, верхняя 
[Cb cap|Ac trans|Ci sp]
+17.1 +5.7 47 +18  1004.2  0.4  713  269           
15 17.09.17 290 (З) 10 км  в посл. час ливневой дождь  10/8 600 м кучево-дожд., средняя 
[Cb cap|Ac As]
+10.7 +8.2 85 +10  1013.9  3.2  719  277           
03 18.09.17 300 (СЗ) 5{14}  20000 м    6/3 600 м верхняя 
[Sc|Ci sp]
+7.6 +2.1 68 +6  1019.8  -0.4  723  283           
06 18.09.17 300 (СЗ) 20000 м    9/1 600 м верхняя 
[Sc|Ci sp]
+9.6 +2.7 62 +9  1017.8  -1.5  722  281           
09 18.09.17 130 (ЮВ) 20000 м    4/0 верхняя 
[Ci sp]
+13.8 +3 48 +15  1015.3  -1.6  721  276           
15 18.09.17 290 (З) 20000 м    9/0 верхняя 
[Ci sp]
+3.3 +1.2 86 +3  1014.7  -1.5  719  286           
18 18.09.17 290 (З) 20000 м    6/0 верхняя 
[Ci sp]
+4.1 +3 93 +4  1012.8  -1.6  718  284           
21 18.09.17 290 (З) 20000 м    3/0 верхняя 
[Ci sp]
+4.8 +3 88 +6  1012.4  -0.2  717  284           
00 19.09.17 тихо ()   20000 м    9/0 средняя, верхняя 
[Ac trans|Ci sp]
+8.5 +3.8 72 +9  1011.9  0.2  718  280  +1.6        сухая 
03 19.09.17 320 (СЗ) 20000 м    9/0 верхняя 
[Ci sp]
+10.6 +4.9 68 +12  1011.3  0.1  718  277           
06 19.09.17 100 (В) 20000 м    9/0 верхняя 
[Ci sp]
+12.8 +5.9 63 +13  1008.8  -2  716  275           
09 19.09.17 190 (Ю) 20000 м    9/0 верхняя 
[Ci sp]
+11.5 +5.1 65 +12  1006.2  -2.7  714  275           
12 19.09.17 190 (Ю) 20000 м    9/0 средняя, верхняя 
[Ac trans|Ci sp]
+9.4 +6.7 83 +9  1004.8  -1.7  713  276    +13.1       
15 19.09.17 270 (З) 20000 м    9/0 верхняя 
[Ci sp]
+6.7 +5.1 90 +8  1005.4  -0.1  713  279           
18 19.09.17 290 (З) 20000 м    9/0 верхняя 
[Ci sp]
+8.4 +6.5 88 +8  1007.4  2.2  714  278           
21 19.09.17 250 (З) 20000 м    9/0 верхняя 
[Ci sp]
+7.1 +5.4 89 +8  1006.1  -1.6  713  279           
00 20.09.17 тихо ()   20000 м    9/0 средняя, верхняя 
[Ac trans|Ci sp]
+7.4 +6.4 93 +7  1005.8  -0.2  713  279  +4.4        сухая 
03 20.09.17 300 (СЗ) 10 км    9/6 600 м средняя, верхняя 
[Sc|Ac trans|Ci sp]
+11.6 +7.6 76 +12  1004.4  -0.6  713  274           
06 20.09.17 290 (З) 6-10{12}  10 км    10/8 600 м кучево-дожд., средняя 
[Cb cap|Ac As]
+11.6 +8.6 82 +10  1005  0.6  713  274           
09 20.09.17 290 (З) 8-13{15}  10 км    10/8 600 м кучево-дожд., средняя 
[Cb cap|Ac As]
+10 +8.1 88 +8  1006.6  1.1  714  276           
Время (UTC), дата Ветер
(°,м/с) 
Видим.   Явления Облачность Т
(°С)
Тd
(°С)
f(%) Тe
(°С)
Pmin
(гПа)
dP
(гПа)
Po
(мм)
O2
(г/м3)
Тmin Tmax R s Состояние
почвы

Для получения пояснительной информации подведите курсор к названию столбца.

ПОГОДА в Бабушкине - архив

Всё, что Вы хотите узнать о погоде в Бабушкине - удобно и подробно!

Выберите нужную дату (начиная с 1 января 2015* года) и нажмите кнопку "Найти".
Будут отображены архивные сводки погоды по пункту Бабушкин, начиная с указанной даты.


Отображать данные в формате CSV (для использования в таблицах Excel)


Внимание! Наш архив погоды предназначен исключительно для личного некоммерческого использования в познавательных целях. Если Вам необходимы официальные справки о состоянии погоды (для производственных, юридических, коммерческих и т.п. целей), обращайтесь в органы Росгидромета.

*Примечание: данная дата относится к архиву по метеостанциям СССР (Россия, СНГ, Балтия).
Архив по метеостанциям Зарубежной Европы и Азии (кроме Китая) хранится 10 дней, по другим регионам земного шара (Китай, Африка, Америка, Австралия, Океания) - 1 день.

Бабушкин - район местоположения метеостанции


Название, широта, долгота, высота метеостанции:
Бабушкин 51.7°ш. 105.9°д. 467 м над ур. моря [Российская Федерация]

Дополнительная информация

В oтличие oт бoльшинства пoгoдных сайтoв мы публикуем пoдрoбную метеoинфoрмацию в детальнoм прoфессиoнальнoм фoрмате.

Характеристики температуры и влажнoсти вoздуха измеряются на высoте 2 м в тени вдали oт зданий и деревьев.
Скoрoсть ветра измеряется на высoте 10 м (на урoвне рoста челoвека скoрoсть ветра ниже в 1.5-2 раза). Если метеoстанция нахoдится в гoрoде или в лесу, тo скoрoсть ветра занижена на 2-4 м/с пo сравнению с oткрытым местoм. Скoрoсть ветра над акватoриями крупных рек и oзёр, а также на вершинах хoлмoв на 2-5 м/с выше, чем в oбычных услoвиях.
Атмoсфернoе давление в разных тoчках местнoсти мoжет значительнo oтличаться oт давления на метеoстанции, в зависимoсти oт услoвий рельефа (при пoдъёме на 10 м давление пoнижается примернo на 1 мм рт.ст.).